Terminal Aerodrome Forecast
Issued by NWS Caribou, ME

Home | Current Version | Previous Version | Text Only | Print | Product List | Glossary On
Versions: 1 2 3 4 5 6 7 8 9 10 11 12 13 14 15 16
000
FTUS41 KCAR 281120
TAFCAR
TAF
KCAR 281120Z 2812/0112 25006KT P6SM SKC
     FM281600 24010G16KT P6SM FEW140
     FM010400 25006KT P6SM FEW200=

USA.gov is the U.S. government's official web portal to all federal, state and local government web resources and services.